Meteo Giornale » Osservazioni meteo Norvegia » Svartnes
ore: 20:20 - Osservazioni Meteo Svartnes
Lat. 70° 21' N Lon. 31° 3' E Alt. 12 metri s.l.m.
12 °C
Coperto
Temp. 24 Ore
12 °C
16 °C
Nord/NOvest
16.7 Km/h
Dew point 11 °C
Umidità 93 %
Visibilità 10 Km
Il sole sorge alle ore 04:05
Il sole tramonta alle ore 19:47
| Data e Ora | Cielo e Fenomeni | T °C | DP °C | Um. % | Pres. hPa | Vis. km | Vento km/h | |
|---|---|---|---|---|---|---|---|---|
| Oggi h: 20:20 | Coperto | 12 | 11 | 93 | 1004 | 10 | N/NO 16.7 | |
| Oggi h: 19:50 | Pioggia | 12 | 11 | 93 | 1004 | 10 | NO 11.1 | |
| Oggi h: 19:20 | Poco Nuvoloso | 15 | 12 | 82 | 1004 | 10 | SO 9.3 | |
| Oggi h: 18:50 | Poco Nuvoloso | 15 | 13 | 87 | 1003 | 10 | S/SO 11.1 | |
| Oggi h: 18:20 | Sereno | 16 | 13 | 82 | 1003 | 10 | S/SO 18.5 | |
| Oggi h: 17:50 | Sereno | 16 | 13 | 82 | 1003 | 10 | S/SO 18.5 | |
| Oggi h: 17:20 | Poco Nuvoloso | 16 | 13 | 82 | 1003 | 10 | S/SO 16.7 | |
| Oggi h: 16:50 | Poco Nuvoloso | 16 | 13 | 82 | 1003 | 10 | S 22.2 | |
| Oggi h: 16:20 | Sereno | 16 | 14 | 87 | 1003 | 10 | S 16.7 | |
| Oggi h: 15:50 | Sereno | 16 | 13 | 82 | 1003 | 10 | S 16.7 | |
| Oggi h: 15:20 | Poco Nuvoloso | 16 | 13 | 82 | 1003 | 10 | S 16.7 | |
| Oggi h: 14:50 | Poco Nuvoloso | 16 | 13 | 82 | 1003 | 10 | S 20.3 | |
| Oggi h: 14:20 | Sereno | 16 | 14 | 87 | 1003 | 10 | S/SO 16.7 | |
| Oggi h: 13:50 | Sereno | 16 | 13 | 82 | 1004 | 10 | S/SO 14.8 | |
| Oggi h: 13:20 | Sereno | 16 | 13 | 82 | 1004 | 10 | S 20.3 | |
| Oggi h: 12:50 | Molto Nuvoloso | 16 | 13 | 82 | 1003 | 10 | S 27.8 | |
| Oggi h: 12:20 | Molto Nuvoloso | 15 | 12 | 82 | 1003 | 10 | S/SO 20.3 | |
| Oggi h: 11:50 | Molto Nuvoloso | 15 | 13 | 87 | 1003 | 10 | S 20.3 | |
| Oggi h: 11:20 | Molto Nuvoloso | 16 | 13 | 82 | 1003 | 10 | S/SO 24 | |
| Oggi h: 10:50 | Molto Nuvoloso | 16 | 13 | 82 | 1003 | 10 | S 27.8 | |
| Oggi h: 10:20 | Molto Nuvoloso | 13 | 12 | 93 | 1003 | 10 | S/SE 20.3 | |
| Oggi h: 08:50 | Poco Nuvoloso | 14 | 12 | 87 | 1004 | 10 | S 24 | |
| Oggi h: 08:20 | Nuvoloso | 14 | 12 | 87 | 1004 | 10 | S 25.9 | |
| Oggi h: 07:50 | Molto Nuvoloso | 14 | 12 | 87 | 1004 | 10 | S 27.8 | |
| Oggi h: 07:20 | Sereno | 14 | 12 | 87 | 1004 | 10 | S 22.2 | |
| Oggi h: 06:50 | Coperto | 14 | 12 | 87 | 1004 | 10 | S/SO 14.8 | |
| Oggi h: 06:20 | Coperto | 13 | 12 | 93 | 1004 | 10 | S 22.2 | |
| Oggi h: 05:50 | Coperto | 12 | 11 | 93 | 1004 | 10 | S 18.5 | |
| Oggi h: 05:20 | Coperto | 13 | 12 | 93 | 1004 | 10 | S 11.1 | |
| Oggi h: 04:50 | Coperto | 13 | 12 | 93 | 1004 | 10 | SO 7.4 | |
| Oggi h: 04:20 | Coperto | 13 | 12 | 93 | 1004 | 10 | S 18.5 | |
| Oggi h: 03:50 | Coperto | 13 | 12 | 93 | 1004 | 10 | S 18.5 | |
| Oggi h: 03:20 | Coperto | 12 | 12 | 100 | 1004 | 10 | S 20.3 | |
| Oggi h: 02:50 | Coperto | 13 | 11 | 87 | 1004 | 10 | S 27.8 | |
| Oggi h: 02:20 | Coperto | 12 | 11 | 93 | 1004 | 10 | S 20.3 | |
| Oggi h: 01:50 | Pioggia | 12 | 11 | 93 | 1004 | 10 | S 22.2 | |
| Oggi h: 01:20 | Pioggia | 12 | 11 | 93 | 1005 | 10 | S/SE 18.5 | |
| Oggi h: 00:50 | Pioggia | 12 | 11 | 93 | 1005 | 10 | S 20.3 | |
| Oggi h: 00:20 | Coperto | 13 | 10 | 81 | 1005 | 10 | S 27.8 | |
| Ieri h: 23:50 | Coperto | 13 | 10 | 81 | 1005 | 10 | S 35.2 | |
| Ieri h: 23:20 | Coperto | 13 | 10 | 81 | 1005 | 10 | S 22.2 | |
| Ieri h: 22:50 | Coperto | 13 | 10 | 81 | 1006 | 10 | S 29.6 | |
| Ieri h: 22:20 | Pioviggine | 14 | 10 | 76 | 1006 | 10 | S 38.8 | |
| Ieri h: 21:50 | Coperto | 14 | 10 | 76 | 1006 | 10 | S 38.8 | |
| Ieri h: 21:20 | Coperto | 14 | 10 | 76 | 1006 | 10 | S 33.3 | |
| Ieri h: 20:50 | Coperto | 13 | 10 | 81 | 1006 | 10 | S 22.2 | |



